x

8419317 - Wells, Me (welm1) Weather Station

7:54am - Fri 29th Apr 2016 All times are EDT. -4 hours from GMT.

  • Wind
    8mph, 10mph gusts
  • Sea Temp 43°f
  • Air Temp 39°f
  • Sea Pressure 1022.4mb
  • 8419317 - Wells, Me
  • 8419317 - Wells, Me

More Historic Weather Station data

Upgrade to MSW Pro to gain access to the past 30 days of data for over 8000 Wavebouys and Weather Stations around the globe.

Join Pro

Comparision Forecast

View Surf forecast
   
Fri 04/29 7:54am 8 10 mph 1022.4mb 43f 39f
7:48am 8 9 mph 1022.4mb 44f 39f
7:42am 8 9 mph 1022.3mb 43f 39f
7:36am 8 9 mph 1022.2mb 43f 38f
7:30am 8 10 mph 1022.2mb 43f 38f
7:24am 8 9 mph 1022.3mb 43f 38f
7:18am 9 10 mph 1022.3mb 43f 37f
7:12am 9 11 mph 1022.3mb 43f 37f
7:06am 9 10 mph 1022.2mb 43f 37f
7:00am 8 10 mph 1022.1mb 43f 37f
6:54am 8 10 mph 1022.1mb 43f 37f
6:48am 8 10 mph 1022mb 43f 37f
6:42am 8 10 mph 1022mb 43f 36f
6:36am 7 9 mph 1022mb 43f 36f
6:30am 7 10 mph 1021.9mb 43f 36f
6:24am 8 10 mph 1021.8mb 43f 36f
6:18am 7 10 mph 1021.8mb 43f 36f
6:12am 8 13 mph 1021.8mb 43f 36f
6:06am 9 11 mph 1021.7mb 43f 36f
6:00am 9 13 mph 1021.5mb 43f 36f
5:54am 10 13 mph 1021.4mb 43f 36f
5:48am 11 14 mph 1021.3mb 43f 36f
5:42am 10 11 mph 1021.3mb 43f 36f
5:36am 9 11 mph 1021.4mb 43f 36f
5:30am 8 10 mph 1021.4mb 44f 36f
5:24am 8 10 mph 1021.4mb 44f 36f
5:18am 8 11 mph 1021.3mb 44f 36f
5:12am 8 10 mph 1021.2mb 44f 36f
5:06am 8 10 mph 1021.2mb 44f 36f
5:00am 7 9 mph 1021.1mb 44f 36f
4:54am 7 8 mph 1021.1mb 44f 36f
4:48am 7 9 mph 1021.1mb 44f 36f
4:42am 7 9 mph 1021.1mb 44f 36f
4:36am 8 9 mph 1021mb 44f 36f
4:30am 7 8 mph 1021mb 44f 37f
4:24am 7 8 mph 1021mb 44f 36f
4:18am 7 8 mph 1021mb 44f 36f
4:12am 7 8 mph 1020.9mb 44f 36f
4:06am 7 9 mph 1020.8mb 44f 37f
4:00am 7 10 mph 1020.8mb 44f 37f
3:54am 8 10 mph 1020.7mb 44f 37f
3:48am 8 11 mph 1020.6mb 44f 37f
3:42am 9 11 mph 1020.5mb 44f 37f
3:36am 9 10 mph 1020.5mb 44f 37f
3:30am 8 9 mph 1020.5mb 44f 38f
3:24am 7 8 mph 1020.4mb 44f 38f
3:18am 6 10 mph 1020.4mb 44f 38f
3:12am 8 11 mph 1020.3mb 44f 38f
3:06am 9 14 mph 1020.3mb 44f 38f
3:00am 8 11 mph 1020.3mb 44f 38f
2:54am 9 11 mph 1020.3mb 44f 38f
2:48am 8 11 mph 1020.3mb 44f 38f
2:42am 9 11 mph 1020.3mb 44f 38f
2:36am 9 10 mph 1020.2mb 44f 38f
2:30am 8 10 mph 1020.2mb 44f 38f
2:24am 8 10 mph 1020.3mb 44f 38f
2:18am 9 10 mph 1020.2mb 44f 38f
2:12am 8 10 mph 1020.2mb 44f 38f
2:06am 9 11 mph 1020.3mb 44f 38f
2:00am 8 10 mph 1020.2mb 44f 38f
1:54am 9 11 mph 1020.2mb 44f 38f
1:48am 9 11 mph 1020.2mb 44f 38f
1:42am 9 11 mph 1020.2mb 44f 38f
1:36am 9 10 mph 1020.3mb 44f 37f
1:30am 9 11 mph 1020.3mb 44f 37f
1:24am 9 10 mph 1020.3mb 44f 37f
1:18am 8 9 mph 1020.2mb 44f 37f
1:12am 7 9 mph 1020.2mb 44f 37f
1:06am 8 9 mph 1020.1mb 45f 37f
1:00am 8
mph
1020.2mb 45f 37f
12:54am 8 9 mph 1020.1mb 45f 37f
12:48am 7 8 mph 1020.1mb 46f 38f
12:42am 8
mph
1020.2mb 47f 38f
12:36am 7 8 mph 1020.1mb 47f 38f
12:30am 6 7 mph 1020mb 47f 38f
12:24am 7 8 mph 1019.9mb 47f 38f
12:18am 6 8 mph 1019.9mb 47f 38f
12:12am 6 7 mph 1019.9mb 47f 38f
12:06am 6 7 mph 1019.9mb 47f 38f
12:00am 6 7 mph 1019.8mb 47f 39f
Thu 04/28 11:54pm 6 7 mph 1019.8mb 47f 39f
11:48pm 7 8 mph 1019.7mb 47f 39f
11:42pm 7 8 mph 1019.6mb 47f 39f
11:36pm 6
mph
1019.7mb 47f 39f
11:30pm 6 7 mph 1019.7mb 46f 40f
11:24pm 7
mph
1019.6mb 46f 40f
11:18pm 7 8 mph 1019.6mb 46f 40f
11:12pm 5 6 mph 1019.6mb 46f 41f
11:06pm 6
mph
1019.6mb 46f 42f
11:00pm  -  mph 1019.5mb 46f 45f
10:54pm  -  mph 1019.5mb 46f 45f
10:48pm  -  mph 1019.4mb - -
10:42pm  -  mph 1019.3mb - -
10:36pm  -  mph 1019.3mb - -
10:30pm  -  mph 1019.3mb - -
10:24pm  -  mph 1019.3mb - -
10:18pm 7 9 mph 1019.2mb 46f 45f
10:12pm 8 10 mph 1019.2mb 46f 45f
10:06pm 9 11 mph 1019.2mb 46f 45f
10:00pm  -  mph 1019.1mb 46f -
9:54pm  -  mph 1019mb 46f -
9:48pm  -  mph 1019.1mb - -
9:42pm  -  mph 1019mb - -
9:36pm  -  mph 1019mb - -
9:30pm 8 10 mph 1019mb 46f 45f
9:24pm 8 10 mph 1018.9mb 46f 45f
9:18pm  -  mph 1018.8mb 46f 45f
9:12pm  -  mph 1018.7mb 46f 45f
9:06pm  -  mph 1018.8mb 46f 45f
9:00pm  -  mph 1018.8mb 45f 45f
8:54pm  -  mph 1018.7mb 45f 44f
8:48pm 8 10 mph 1018.7mb 45f -
8:42pm 9 11 mph 1018.6mb 45f -
8:36pm 10 13 mph 1018.6mb 45f -
8:30pm  -  mph 1018.5mb 45f -
8:24pm  -  mph 1018.4mb 45f -
8:18pm 10 11 mph 1018.4mb 45f 45f
8:12pm 8 10 mph 1018.3mb 45f 45f
8:06pm 9 13 mph 1018.3mb 45f 44f
8:00pm  -  mph 1018.3mb 45f 44f
7:54pm  -  mph 1018.2mb 45f 45f
7:48pm  -  mph 1018.3mb 45f 45f
7:42pm  -  mph 1018.2mb 46f 45f
7:36pm  -  mph 1018.1mb 45f 45f
7:30pm  -  mph 1018mb 46f -
7:24pm  -  mph 1017.9mb 46f -
7:18pm  -  mph 1017.9mb 46f -
7:12pm  -  mph 1017.9mb 46f -
7:06pm  -  mph 1017.8mb 46f -
7:00pm  -  mph 1017.8mb 46f 45f
6:54pm  -  mph 1017.8mb 45f 45f
6:48pm  -  mph 1017.7mb 45f 45f
6:42pm  -  mph 1017.6mb 45f 45f
6:36pm  -  mph 1017.4mb 45f 45f
6:30pm  -  mph 1017.4mb 45f 45f
6:24pm  -  mph 1017.4mb 45f 45f
6:18pm 13 15 mph 1017.3mb 45f 45f
6:12pm 11 15 mph 1017.2mb 45f 45f
6:06pm 11 14 mph 1017.1mb 45f 46f
6:00pm  -  mph 1017mb 45f 46f
5:54pm  -  mph 1017mb 45f 45f
5:48pm  -  mph 1016.9mb 45f -
5:42pm  -  mph 1016.8mb 45f -
5:36pm  -  mph 1016.8mb 45f -
5:30pm 9 13 mph 1016.6mb 45f 45f
5:24pm 11 13 mph 1016.6mb 44f 45f
5:18pm 10 14 mph 1016.5mb 44f 45f
5:12pm 11 14 mph 1016.4mb 44f 45f
5:06pm 13 16 mph 1016.3mb 44f 45f
5:00pm 13 15 mph 1016.3mb 44f 45f
4:54pm 13 15 mph 1016.3mb 44f 45f
4:48pm 13 15 mph 1016.3mb 44f 45f
4:42pm 11 15 mph 1016.2mb 44f 45f
4:36pm 13 15 mph 1016.2mb 44f 45f
4:30pm 11 16 mph 1016.3mb 44f 45f
4:24pm 13 17 mph 1016.2mb 44f 45f
4:18pm 15 17 mph 1016.2mb 44f 45f
4:12pm 15 17 mph 1016.2mb 44f 45f
4:06pm 13 16 mph 1016.2mb 44f 45f
4:00pm 13 16 mph 1016.2mb 44f 45f
3:54pm 14 17 mph 1016.3mb 44f 45f
3:48pm 14 17 mph 1016.2mb 44f 45f
3:42pm 13 16 mph 1016.3mb 44f 45f
3:36pm 13 15 mph 1016.3mb 44f 45f
3:30pm 14 16 mph 1016.4mb 44f 45f
3:24pm 11 15 mph 1016.3mb 44f 45f
3:18pm 14 16 mph 1016.4mb 44f 45f
3:12pm 13 15 mph 1016.4mb 44f 45f
3:06pm 14 15 mph 1016.4mb 44f 44f
3:00pm 14 16 mph 1016.5mb 44f 44f
2:54pm 13 16 mph 1016.5mb 44f 44f
2:48pm 13 16 mph 1016.6mb 44f 44f
2:42pm 13 16 mph 1016.6mb 44f 44f
2:36pm 13 17 mph 1016.7mb 44f 44f
2:30pm 14 16 mph 1016.7mb 44f 44f
2:24pm 14 17 mph 1016.7mb 44f 44f
2:18pm 14 17 mph 1016.5mb 44f 44f
2:12pm 13 16 mph 1016.6mb 44f 44f
2:06pm 13 16 mph 1016.5mb 44f 44f
2:00pm 14 16 mph 1016.6mb 44f 44f
1:54pm 14 16 mph 1016.7mb 44f 44f
1:48pm 15 17 mph 1016.8mb 44f 43f
1:42pm 14 15 mph 1016.8mb 44f 44f
1:36pm 13 16 mph 1016.8mb 44f 43f
1:30pm 13 16 mph 1016.7mb 44f 43f
1:24pm 14 16 mph 1016.8mb 44f 43f
1:18pm 11 15 mph 1016.8mb 44f 43f
1:12pm 10 15 mph 1016.8mb 44f 43f
1:06pm 13 14 mph 1016.8mb 44f 43f
1:00pm 14 16 mph 1016.8mb 44f 43f
12:54pm 11 14 mph 1016.9mb 44f 43f
12:48pm 10 14 mph 1016.9mb 44f 43f
12:42pm 13 15 mph 1016.9mb 44f 43f
12:36pm 11 14 mph 1017mb 44f 43f
12:30pm 11 14 mph 1017mb 43f 43f
12:24pm 11 14 mph 1017mb 43f 43f
12:18pm 13 14 mph 1017mb 43f 42f
12:12pm 11 14 mph 1017mb 43f 42f
12:06pm 10 14 mph 1017mb 43f 43f
12:00pm 10 14 mph 1016.9mb 43f 42f
11:54am 10 14 mph 1017mb 43f 42f
11:48am 10 14 mph 1017mb 43f 42f
11:42am 10 13 mph 1017.1mb 43f 42f
11:36am 10 14 mph 1017.1mb 43f 42f
11:30am 11 15 mph 1017.1mb 43f 42f
11:24am 11 15 mph 1017.1mb 43f 42f
11:18am 13 14 mph 1017mb 43f 42f
11:12am 10 13 mph 1017.1mb 43f 42f
11:06am 10 14 mph 1017.1mb 43f 42f
11:00am 10 13 mph 1017.1mb 43f 42f
10:54am 10 13 mph 1017.1mb 43f 42f
10:48am 9 11 mph 1017mb 43f -
10:42am 8 11 mph 1016.9mb 43f -
10:36am 8 11 mph 1016.9mb 43f -
10:30am 8 11 mph 1017mb 43f 42f
10:24am 9 11 mph 1016.9mb 43f 42f
10:18am 9 11 mph 1016.9mb 43f 42f
10:12am 9 11 mph 1016.9mb 43f 42f
10:06am 7 10 mph 1016.9mb 43f 42f
10:00am 9 13 mph 1016.8mb 43f 42f
9:54am 9 11 mph 1016.9mb 43f 42f
9:48am 8 10 mph 1017mb 43f -
9:42am 7 10 mph 1017.1mb 43f -
9:36am 9 11 mph 1017.1mb 43f -
9:30am 7 9 mph 1017.1mb 43f 42f
9:24am 7 9 mph 1017mb 43f 41f
9:18am 7 9 mph 1017mb 43f 41f
9:12am 7 9 mph 1017.1mb 43f 42f
9:06am 6 8 mph 1017mb 43f 40f
9:00am 6 7 mph 1017mb 43f 42f
8:54am 6 8 mph 1017mb 43f 42f
8:48am 5 6 mph 1016.9mb 43f 41f
8:42am 3 6 mph 1016.9mb 43f 41f
8:36am 3 6 mph 1016.9mb 43f 41f
8:30am 3 5 mph 1016.8mb 43f 41f
8:24am 3 5 mph 1016.8mb 43f 40f
8:18am 3 5 mph 1016.7mb 43f 40f
8:12am 2 5 mph 1016.7mb 43f 40f
8:06am 3 5 mph 1016.6mb 43f 40f
8:00am 3 6 mph 1016.6mb 43f 40f
7:54am 5 6 mph 1016.5mb 43f 39f
7:48am 3 5 mph 1016.4mb 43f 40f
7:42am 2
mph
1016.4mb 43f 40f
7:36am  -  2 mph 1016.3mb 43f 41f
7:30am  -  1 mph 1016.3mb 43f 41f
7:24am  -  1 mph 1016.2mb 43f 39f
7:18am  -  2 mph 1016.1mb 43f 38f
7:12am 1 2 mph 1016.1mb 43f 37f
7:06am 1 2 mph 1016.1mb 43f 37f
7:00am  -  1 mph 1016.1mb 43f 37f
6:54am 1
mph
1016mb 43f 36f
6:48am  -  1 mph 1015.9mb 43f 35f
6:42am 1 2 mph 1015.8mb 42f 35f
6:36am 1 2 mph 1015.8mb 42f 34f
6:30am 1 2 mph 1015.7mb 42f 34f
6:24am  -  2 mph 1015.6mb 42f 33f
6:18am 1 2 mph 1015.5mb 42f 32f
6:12am  -  2 mph 1015.4mb 42f 32f
6:06am 1 2 mph 1015.3mb 42f 31f
6:00am 2 5 mph 1015.2mb 42f 30f
5:54am 2 3 mph 1015.2mb 42f 30f
5:48am 2 3 mph 1015.3mb 42f 31f
5:42am  -  1 mph 1015.2mb 42f 30f
5:36am  -  1 mph 1015.1mb 42f 29f
5:30am 1 2 mph 1014.8mb 42f 30f
5:24am 1 3 mph 1014.8mb 43f 30f
5:18am 2 3 mph 1014.6mb 42f 30f
5:12am 2 3 mph 1014.4mb 42f 30f
5:06am 3
mph
1014.3mb 43f 30f
5:00am 2 5 mph 1014.2mb 43f 30f
4:54am 2 3 mph 1014.2mb 43f 31f
4:48am 2 5 mph 1014mb 43f 31f
4:42am 2 3 mph 1014mb 43f 32f
4:36am 2 7 mph 1013.9mb 43f 32f
4:30am 5 9 mph 1013.8mb 43f 31f
4:24am  -  7 mph 1013.6mb 43f 31f
4:18am 2 3 mph 1013.6mb 43f 31f
4:12am 3 5 mph 1013.6mb 43f 31f
4:06am 1 2 mph 1013.5mb 43f 31f
4:00am 2
mph
1013.5mb 43f 32f
3:54am  -  1 mph 1013.5mb 43f 33f
3:48am 1 3 mph 1013.5mb 43f 33f
3:42am 3
mph
1013.4mb 43f 33f
3:36am 3 6 mph 1013.3mb 43f 32f
3:30am 5 7 mph 1013.2mb 43f 32f
3:24am 6
mph
1013.2mb 43f 32f
3:18am 5
mph
1013mb 43f 33f
3:12am 3
mph
1012.9mb 43f 33f
3:06am  -  3 mph 1012.8mb 43f 33f
3:00am  -  1 mph 1012.8mb 43f 33f
2:54am  -  2 mph 1012.8mb 43f 33f
2:48am 2 5 mph 1012.8mb 43f 33f
2:42am 2 3 mph 1012.7mb 43f 33f
2:36am 2 6 mph 1012.7mb 43f 35f
2:30am 6
mph
1012.6mb 43f 37f
2:24am 5
mph
1012.6mb 43f 38f
2:18am 5
mph
1012.5mb 43f 39f
2:12am 3
mph
1012.4mb 43f 39f
2:06am 2 3 mph 1012.4mb 43f 38f
2:00am 2 3 mph 1012.4mb 43f 35f
1:54am 2
mph
1012.2mb 43f 36f
1:48am 1 2 mph 1012.1mb 43f 37f
1:42am 1 2 mph 1012.1mb 43f 37f
1:36am 2
mph
1012.2mb 43f 37f
1:30am 2 3 mph 1012.3mb 43f 39f
1:24am 3 5 mph 1012.3mb 43f 39f
1:18am 3 5 mph 1012.3mb 43f 39f
1:12am 3 5 mph 1012.1mb 43f 40f
1:06am 3 5 mph 1012.1mb 43f 40f
1:00am 3
mph
1012.1mb 43f 41f
12:54am 2 3 mph 1012.1mb 43f 41f
12:48am 3
mph
1012.1mb 43f 41f
12:42am 2
mph
1012mb 43f 42f
12:36am 2 3 mph 1012mb 43f 42f
12:30am 2 5 mph 1011.9mb 44f 42f
12:24am 2 3 mph 1011.8mb 44f 42f
12:18am 2 5 mph 1011.6mb 44f 42f
12:12am 5 6 mph 1011.5mb 44f 42f
12:06am 5 7 mph 1011.4mb 44f 43f
12:00am 6 7 mph 1011.4mb 45f 43f
Wed 04/27 11:54pm 6
mph
1011.3mb 45f 43f
11:48pm  -  mph 1011.2mb 46f 44f
11:42pm  -  mph 1011.1mb 47f 44f
11:36pm  -  mph 1011.1mb 47f 44f
11:30pm 7 11 mph 1011.1mb 47f 44f
11:24pm 9 11 mph 1011.1mb 47f 45f
11:18pm 11 16 mph 1011mb 47f 45f
11:12pm 13 16 mph 1010.9mb 47f 45f
11:06pm 11 17 mph 1010.9mb 47f 45f
11:00pm  -  mph 1010.8mb 47f 46f
10:54pm  -  mph 1010.7mb 46f 45f
10:48pm  -  mph - 46f -
10:42pm  -  mph - 46f -
10:36pm  -  mph - 46f -
10:30pm  -  mph 1010.2mb 46f -
10:24pm  -  mph 1010.2mb 46f -
10:18pm 7 9 mph 1010mb - 42f
10:12pm 7 8 mph 1010mb - 42f
10:06pm 7 8 mph 1009.8mb - 42f
10:00pm  -  mph 1009.6mb 46f -
9:54pm  -  mph 1009.5mb 46f -
9:48pm  -  mph 1009.3mb 46f -
9:42pm  -  mph 1009.3mb 46f -
9:36pm  -  mph 1009.3mb 46f -
9:30pm  -  mph - 46f -
9:24pm  -  mph - 45f -
9:18pm  -  mph 1008.8mb 45f -
9:12pm  -  mph 1008.8mb 45f -
9:06pm  -  mph 1008.5mb 45f -
9:00pm  -  mph 1008.4mb 45f 42f
8:54pm  -  mph 1008.3mb 45f 43f
8:48pm  -  mph 1008.2mb - -
8:42pm  -  mph 1008.1mb - -
8:36pm  -  mph 1008mb - -
8:30pm  -  mph 1007.9mb 45f -
8:24pm  -  mph 1007.9mb 45f -
8:18pm 2 3 mph - 44f -
8:12pm 3 6 mph - 44f -
8:06pm 3 5 mph - 44f -
8:00pm  -  mph 1007.9mb 44f -
7:54pm  -  mph 1007.9mb 44f -
7:48pm  -  mph 1007.8mb 44f -
7:42pm  -  mph 1007.9mb 44f -
7:36pm  -  mph 1008mb 44f -
7:30pm  -  mph 1008mb 44f -
7:24pm  -  mph 1008mb 44f -
7:18pm  -  mph 1008mb 45f 47f
7:12pm  -  mph 1008mb 44f 48f
7:06pm  -  mph 1008mb 45f 48f
7:00pm  -  mph 1008mb 45f 48f
6:54pm  -  mph 1008mb 46f 48f
6:48pm  -  mph - 46f -
6:42pm  -  mph - 46f -
6:36pm  -  mph - 46f -
6:30pm  -  mph 1008.2mb 46f -
6:24pm  -  mph 1008.2mb 46f -
6:18pm 16 20 mph 1008.3mb 45f -
6:12pm 17 22 mph 1008.3mb 45f -
6:06pm 17 21 mph 1008.3mb 45f -
6:00pm  -  mph 1008.3mb 45f -
5:54pm  -  mph 1008.3mb 45f -
5:48pm  -  mph 1008.4mb - -
5:42pm  -  mph 1008.4mb - -
5:36pm  -  mph 1008.3mb - -
5:30pm 22 25 mph 1008.2mb 44f 47f
5:24pm 24 29 mph 1008.4mb 44f 46f
5:18pm 17 26 mph 1008.2mb 44f 47f
5:12pm 21 26 mph 1008.2mb 44f 46f
5:06pm 22 26 mph 1008.3mb 44f 46f
5:00pm 18 23 mph 1008.5mb 44f 47f
4:54pm 15 18 mph 1008.4mb 44f 47f
4:48pm 14 18 mph 1008.4mb 44f 47f
4:42pm 17 21 mph 1008.3mb 44f 47f
4:36pm 18 22 mph 1008.5mb 44f 47f
4:30pm 17 21 mph 1008.2mb 44f 47f
4:24pm 17 20 mph 1008.3mb 44f 47f
4:18pm 16 20 mph 1008.4mb 44f 47f
4:12pm 15 20 mph 1008.4mb 44f 47f
4:06pm 17 22 mph 1008.3mb 43f 47f
4:00pm 20 22 mph 1008.3mb 43f 47f
3:54pm 18 21 mph 1008.4mb 43f 47f
3:48pm 18 23 mph 1008.4mb 43f 47f
3:42pm 18 22 mph 1008.4mb 43f 47f
3:36pm 16 20 mph 1008.5mb 43f 47f
3:30pm 14 18 mph 1008.6mb 43f 49f
3:24pm 7 11 mph 1008.4mb 43f 55f
3:18pm 10 14 mph 1008.5mb 43f 55f
3:12pm 5 11 mph 1008.5mb 43f 56f
3:06pm 9 13 mph 1008.6mb 43f 55f
3:00pm 5 11 mph 1008.7mb 43f 55f
2:54pm 7 14 mph 1008.9mb 43f 55f
2:48pm 9 23 mph 1008.9mb 43f 55f
2:42pm 16 20 mph 1008.9mb 43f 54f
2:36pm 8 17 mph 1009.1mb 43f 55f
2:30pm 14 23 mph 1009.2mb 43f 53f
2:24pm 14 21 mph 1009.3mb 43f 54f
2:18pm 10 16 mph 1009.4mb 43f 54f
2:12pm 11 17 mph 1009.5mb 43f 53f
2:06pm 13 18 mph 1009.6mb 43f 53f
2:00pm 10 16 mph 1009.6mb 43f 54f
1:54pm 7 20 mph 1009.6mb 43f 53f
1:48pm 10 14 mph 1009.6mb 43f 53f
1:42pm 9 17 mph 1009.6mb 43f 52f
1:36pm 10 23 mph 1009.7mb 43f 53f
1:30pm 10 18 mph 1009.7mb 43f 53f
1:24pm 13 22 mph 1009.6mb 43f 51f
1:18pm 10 18 mph 1009.7mb 43f 52f
1:12pm 9 15 mph 1009.8mb 43f 53f
1:06pm 8 17 mph 1009.8mb 43f 51f
1:00pm 11 17 mph 1010mb 43f 51f
12:54pm 16 22 mph 1009.9mb 43f 51f
12:48pm 9 22 mph 1010mb 43f 51f
12:42pm 13 22 mph 1010.1mb 43f 50f
12:36pm 15 24 mph 1009.9mb 43f 50f
12:30pm 8 17 mph 1010.1mb 43f 50f
12:24pm 11 16 mph 1009.9mb 43f 50f
12:18pm 9 17 mph 1010.1mb 43f 51f
12:12pm 15 20 mph 1010mb 43f 49f
12:06pm 8 17 mph 1010.1mb 43f 49f
12:00pm 17 22 mph 1010.1mb 43f 49f
11:54am 10 20 mph 1010.3mb 42f 49f
11:48am 9 21 mph 1010.3mb 41f 50f
11:42am 16 23 mph 1010.4mb 41f 48f
11:36am 9 23 mph 1010.6mb 41f 50f
11:30am 15 22 mph 1010.6mb 40f 48f
11:24am 14 25 mph 1010.9mb 40f 49f
11:18am 14 21 mph 1010.8mb 40f 49f
11:12am 16 22 mph 1010.9mb 40f 48f
11:06am 13 22 mph 1011mb 40f 48f
11:00am 13 20 mph 1011mb 40f 48f
10:54am 13 24 mph 1011mb 40f 48f
10:48am 14 21 mph 1010.9mb 40f -
10:42am 15 23 mph 1011mb 40f -
10:36am 15 22 mph 1010.9mb 40f -
10:30am 8 21 mph 1011mb 40f 49f
10:24am 15 21 mph 1011mb 40f 48f
10:18am 9 17 mph 1011mb 41f 48f
10:12am 10 20 mph 1011.1mb 41f 48f
10:06am 10 17 mph 1011.1mb 41f 47f
10:00am 14 17 mph 1011.3mb 41f 47f
9:54am 9 15 mph 1011.2mb 41f 47f
9:48am 10 17 mph 1011.3mb 41f 47f
9:42am 6 9 mph 1011.3mb 41f 47f
9:36am 6 9 mph 1011.3mb 41f 46f
9:30am 7 9 mph 1011.4mb 41f 45f
9:24am 6 11 mph 1011.5mb 41f 46f
9:18am 7 10 mph 1011.5mb 41f 45f
9:12am 6 11 mph 1011.6mb 41f 45f
9:06am 9 11 mph 1011.4mb 41f 44f
9:00am 8 11 mph 1011.5mb 41f 44f
8:54am 6 13 mph 1011.5mb 41f 43f
8:48am 8 13 mph 1011.5mb 41f 43f
8:42am 8 15 mph 1011.5mb 41f 42f
8:36am 9 14 mph 1011.4mb 41f 42f
8:30am 10 14 mph 1011.4mb 41f 41f
8:24am 8 13 mph 1011.3mb 41f 41f
8:18am 8 16 mph 1011.2mb 41f 41f
8:12am 10 14 mph 1011.2mb 42f 40f
8:06am 9 14 mph 1011.2mb 42f 40f
8:00am 10 15 mph 1011.1mb 42f 40f
7:54am 9 13 mph 1011.1mb 42f 40f
7:48am 8 11 mph 1011.1mb 42f 40f
7:42am 7 10 mph 1011mb 42f 39f
7:36am 9 11 mph 1011mb 42f 38f
7:30am 7 11 mph 1011mb 42f 38f
7:24am 6 10 mph 1010.9mb 42f 38f
7:18am 7 10 mph 1010.9mb 42f 37f
7:12am 7 10 mph 1011mb 42f 37f
7:06am 7 10 mph 1011mb 42f 37f
7:00am 7 9 mph 1011mb 42f 36f
6:54am 8 10 mph 1011mb 42f 36f
6:48am 6 8 mph 1011mb 42f 36f
6:42am 7 8 mph 1011mb 42f 35f
6:36am 6 10 mph 1011mb 42f 35f
6:30am 6 10 mph 1011mb 42f 35f
6:24am 7 11 mph 1011mb 42f 35f
6:18am 8 13 mph 1011mb 42f 34f
6:12am 8 13 mph 1010.9mb 42f 34f
6:06am 9 11 mph 1010.9mb 42f 34f
6:00am 8 11 mph 1010.7mb 42f 34f
5:54am 7 9 mph 1010.7mb 42f 33f
5:48am 2 6 mph 1010.7mb 42f 33f
5:42am 3 6 mph 1010.7mb 42f 32f
5:36am 1 5 mph 1010.6mb 42f 32f
5:30am 1 2 mph 1010.5mb 42f 32f
5:24am  -  2 mph 1010.5mb 42f 32f
5:18am  -  2 mph 1010.5mb 42f 32f
5:12am  -  1 mph 1010.5mb 42f 31f
5:06am  -  3 mph 1010.6mb 42f 31f
5:00am 2 5 mph 1010.7mb 42f 31f
4:54am 1 3 mph 1010.7mb 42f 31f
4:48am 2 5 mph 1010.7mb 42f 32f
4:42am 3
mph
1010.6mb 42f 32f
4:36am 3 5 mph 1010.6mb 42f 32f
4:30am 3 5 mph 1010.5mb 43f 32f
4:24am 2 3 mph 1010.5mb 43f 32f
4:18am 1 3 mph 1010.5mb 42f 33f
4:12am 1 6 mph 1010.5mb 43f 33f
4:06am 3 6 mph 1010.3mb 43f 33f
4:00am 5 7 mph 1010.2mb 43f 33f
3:54am 3 5 mph 1010.2mb 43f 33f
3:48am 3 6 mph 1010.2mb 43f 33f
3:42am 2 6 mph 1010.2mb 43f 33f
3:36am 2 5 mph 1010.2mb 43f 33f
3:30am 2 3 mph 1010.2mb 43f 33f
3:24am 2 5 mph 1010.1mb 43f 33f
3:18am 2 5 mph 1010.1mb 43f 33f
3:12am 2
mph
1010mb 43f 33f
3:06am 2 5 mph 1010mb 43f 33f
3:00am 2 5 mph 1009.8mb 43f 33f
2:54am 3 5 mph 1009.8mb 43f 33f
2:48am 3 5 mph 1009.7mb 43f 33f
2:42am  -  2 mph 1009.8mb 43f 33f
2:36am 1 3 mph 1009.8mb 43f 33f
2:30am 2 5 mph 1009.8mb 43f 33f
2:24am 2 3 mph 1009.8mb 43f 33f
2:18am 1 5 mph 1009.8mb 43f 33f
2:12am 3 6 mph 1009.8mb 43f 33f
2:06am 2 5 mph 1009.8mb 43f 33f
2:00am 2 5 mph 1009.9mb 43f 33f
1:54am 2 5 mph 1009.8mb 43f 33f
1:48am 1 6 mph 1009.8mb 43f -
1:42am 1 3 mph 1009.7mb 43f -
1:36am 2 6 mph 1009.7mb 43f -
1:30am 2 6 mph 1009.7mb 43f 33f
1:24am 2 6 mph 1009.7mb 43f 33f
1:18am 2 5 mph 1009.8mb 43f 33f
1:12am 2 6 mph 1009.8mb 43f 33f
1:06am 1 5 mph 1009.8mb 43f 33f
1:00am 2 5 mph 1009.9mb 43f 33f
12:54am 3 5 mph 1009.9mb 43f 33f
12:48am 2 5 mph 1009.9mb 43f 33f
12:42am 2 5 mph 1010mb 43f 33f
12:36am 2 3 mph 1010.1mb 43f 34f
12:30am 2 5 mph 1010.1mb 43f 34f
12:24am 2 5 mph 1010mb 43f 34f
12:18am 2 5 mph 1010mb 43f 34f
12:12am 2 5 mph 1010mb 43f 34f
12:06am 2 6 mph 1010mb 43f 34f
12:00am 3 6 mph 1010mb 43f 34f
Tue 04/26 11:54pm 3 5 mph 1010.1mb 43f 33f
11:48pm 2 3 mph 1010mb 43f 33f
11:42pm 2 5 mph 1010.1mb 43f 33f
11:36pm 2 5 mph 1010.1mb 43f 33f
11:30pm 2 6 mph 1010mb 43f 33f
11:24pm 3 5 mph 1010mb 43f 34f
11:18pm 2 5 mph 1010mb 43f 34f
11:12pm 3 6 mph 1009.9mb 43f 34f
11:06pm 3 7 mph 1010mb 43f 34f
11:00pm 3 7 mph 1010mb 43f 34f
10:54pm 3 6 mph 1010mb 43f 34f
10:48pm 5 7 mph 1009.9mb 43f 34f
10:42pm 6 7 mph 1009.8mb 43f 34f
10:36pm 5 6 mph 1009.8mb 43f 33f
10:30pm 3 5 mph 1009.9mb 43f 33f
10:24pm 3 5 mph 1009.8mb 43f 33f
10:18pm 2 5 mph 1009.8mb 43f 33f
10:12pm 2 5 mph 1009.8mb 43f 33f
10:06pm 3 5 mph 1009.8mb 43f 33f
10:00pm 2 3 mph 1009.8mb 43f -
9:54pm 2 3 mph 1009.7mb 43f -
9:48pm  -  mph 1009.7mb 43f 33f
9:42pm  -  mph 1009.6mb 43f 33f
9:36pm  -  mph 1009.6mb 43f 33f
9:30pm 3
mph
1009.6mb 43f 33f
9:24pm 2 5 mph 1009.6mb 43f 33f
9:18pm  -  mph 1009.7mb 43f 34f
9:12pm  -  mph 1009.7mb 43f 34f
9:06pm  -  mph 1009.8mb 43f 34f
9:00pm 2 3 mph 1009.8mb 43f 34f
8:54pm 2 3 mph 1009.7mb 43f 34f
8:48pm  -  mph 1009.8mb 43f 34f
8:42pm  -  mph 1009.7mb 43f 34f
8:36pm  -  mph 1009.6mb 43f 34f
8:30pm 2
mph
1009.5mb 43f 34f
8:24pm 2 3 mph 1009.4mb 43f 35f
8:18pm  -  mph 1009.5mb 43f 35f
8:12pm  -  mph 1009.5mb 43f 35f
8:06pm  -  mph 1009.6mb 43f 35f
8:00pm 1 3 mph 1009.6mb 43f 35f
7:54pm 2 3 mph 1009.5mb 43f 36f
7:48pm  -  mph - 43f 36f
7:42pm  -  mph - 43f 36f
7:36pm  -  mph - 43f 36f
7:30pm 3 6 mph 1009.6mb 43f 36f
7:24pm 2 5 mph 1009.6mb 43f 36f
7:18pm  -  mph 1009.4mb 43f 36f
7:12pm  -  mph 1009.3mb 43f 36f
7:06pm  -  mph 1009.1mb 43f 36f
7:00pm 3 5 mph 1009.1mb 43f 36f
6:54pm 1 3 mph 1009.2mb 43f 37f
6:48pm  -  mph - 43f -
6:42pm  -  mph - 43f -
6:36pm  -  mph - 43f -
6:30pm 5 7 mph 1009.3mb 43f 36f
6:24pm 5 7 mph 1009.5mb 43f 36f
6:18pm 5 7 mph 1009.5mb 43f 36f
6:12pm 6 8 mph 1009.5mb 43f 36f
6:06pm 6 9 mph 1009.4mb 43f 36f
6:00pm 7 9 mph 1009.4mb 43f 36f
5:54pm 7 8 mph 1009.4mb 43f 36f
5:48pm  -  mph 1009.3mb 43f -
5:42pm  -  mph 1009.4mb 43f -
5:36pm  -  mph 1009.4mb 43f -
5:30pm 7 10 mph 1009.6mb 43f 35f
5:24pm 8 10 mph 1009.5mb 43f 35f
5:18pm 8 11 mph 1009.3mb 43f 35f
5:12pm 7 11 mph 1009.2mb 43f 35f
5:06pm 8 11 mph 1009.1mb 43f 35f
5:00pm 10 13 mph 1008.9mb 43f 35f
4:54pm 10 13 mph 1008.7mb 43f 35f
4:48pm 9 11 mph 1008.6mb 43f 35f
4:42pm 8 11 mph 1008.5mb 43f 35f
4:36pm 8 10 mph 1008.5mb 43f 34f
4:30pm 9 13 mph 1008.6mb 43f 34f
4:24pm 10 14 mph 1008.5mb 43f 34f
4:18pm 9 13 mph 1008.4mb 43f 34f
4:12pm 8 11 mph 1008.3mb 43f 34f
4:06pm 7 10 mph 1008.3mb 43f 34f
4:00pm 8 10 mph 1008.3mb 43f 34f
3:54pm 7 11 mph 1008.3mb 43f 34f
3:48pm 10 13 mph 1008.1mb 43f 34f
2:54pm 11 15 mph 1008.8mb 43f 33f
2:48pm 11 13 mph 1008.7mb 43f 33f
1:54pm 10 11 mph 1008.9mb 43f 33f
1:48pm 9 10 mph 1009.1mb 43f 33f
12:54pm 9 11 mph 1009.6mb 43f 32f
12:48pm 10 14 mph 1009.8mb 43f 32f
12:30pm 10 13 mph 1010.1mb 43f 33f
12:24pm 10 13 mph 1010.1mb 43f 33f
12:18pm 9 15 mph 1009.9mb 43f 33f
12:12pm 9 11 mph 1009.9mb 43f 33f
12:06pm 10 14 mph 1009.5mb 43f 33f
12:00pm 11 14 mph 1009.8mb 43f 33f
11:54am 9 11 mph 1009.6mb 44f 34f
11:48am 10 14 mph 1009.4mb 44f 34f
11:42am 10 11 mph 1009.5mb 44f 34f
11:36am 9 13 mph 1009.6mb 44f 34f
11:30am 9 13 mph 1009.7mb 44f 34f
11:24am 8 11 mph 1010mb 44f 34f
11:18am 8 10 mph 1010.4mb 44f 34f
11:12am 8 13 mph 1010.7mb 44f 34f
11:06am 9 15 mph 1010.8mb 44f 34f
11:00am 10 13 mph 1010.6mb 44f 34f
10:54am 8 13 mph 1010.4mb 44f 35f
10:48am 11 15 mph 1010.2mb 44f 34f
10:42am 11 17 mph 1010.1mb 44f 34f
10:36am 11 14 mph 1010.3mb 44f 34f
10:30am 9 13 mph 1010.6mb 44f 34f
10:24am 10 14 mph 1010.6mb 44f 35f
10:18am 10 15 mph 1010.7mb 44f 35f
10:12am 10 14 mph 1010.6mb 44f 35f
10:06am 8 14 mph 1010.7mb 44f 36f
10:00am 11 14 mph 1010.7mb 44f 36f
9:54am 9 10 mph 1010.8mb 44f 36f
9:48am 8 11 mph 1010.6mb 44f 37f
9:42am 10 13 mph 1010.5mb 44f 37f
9:36am 9 13 mph 1010.7mb 44f 37f
9:30am 11 14 mph 1010.8mb 44f 37f
9:24am 8 11 mph 1010.6mb 44f 37f
9:18am 8 10 mph 1010.8mb 44f 36f
9:12am 9 10 mph 1010.9mb 44f 36f
9:06am 7 9 mph 1011mb 44f 37f
9:00am 6 7 mph 1011mb 44f 36f
8:54am 6 7 mph 1011.2mb 44f 36f
8:48am 6 7 mph 1011.2mb 44f 36f
8:42am 6 7 mph 1011.3mb 44f 36f
8:36am 6
mph
1011.4mb 44f 36f
8:30am 5 6 mph 1011.4mb 44f 36f
8:24am 5 7 mph 1011.6mb 44f 36f
8:18am 6 7 mph 1011.7mb 44f 36f
8:12am 6 7 mph 1011.6mb 44f 35f
8:06am 6
mph
1011.7mb 44f 35f
8:00am 5 6 mph 1011.8mb 44f 35f
7:54am 5 6 mph 1011.8mb 44f 35f
7:48am 5 7 mph 1011.9mb 44f 35f
7:42am 6 7 mph 1012mb 44f 35f
7:36am 6 7 mph 1012.1mb 44f 35f
7:30am 6 7 mph 1012.2mb 44f 35f
7:24am 5 6 mph 1012.4mb 44f 35f
7:18am 3 5 mph 1012.3mb 44f 35f
7:12am 2 3 mph 1012.4mb 44f 35f
7:06am 2 3 mph 1012.6mb 44f 35f
7:00am 2 3 mph 1012.5mb 44f 35f
6:54am 1 3 mph 1012.4mb 44f 35f
6:48am 3 5 mph 1012.3mb 44f 35f
6:42am 3 7 mph 1012.3mb 44f 35f
6:36am 5 8 mph 1012.2mb 44f 35f
6:30am 6 7 mph 1012.2mb 44f 35f
6:24am 6 8 mph 1012.4mb 44f 35f
6:18am 6 8 mph 1012.3mb 44f 34f
6:12am 7 8 mph 1012.2mb 44f 34f
6:06am 7 9 mph 1012.3mb 44f 35f
6:00am 7 9 mph 1012.3mb 44f 35f
5:54am 7 10 mph 1012.4mb 44f 35f
5:48am 8 10 mph 1012.5mb 44f 35f
5:42am 7 9 mph 1012.6mb 44f 35f
5:36am 8 9 mph 1012.7mb 44f 35f
5:30am 7 11 mph 1012.7mb 44f 36f
5:24am 9 13 mph 1012.6mb 44f 36f
5:18am 7 10 mph 1012.7mb 44f 36f
5:12am 8 11 mph 1012.7mb 44f 37f
5:06am 10 13 mph 1012.8mb 44f 37f
5:00am 14 18 mph 1012.6mb 44f 38f
4:54am 14 18 mph 1012.7mb 44f 38f
4:48am 14 18 mph 1012.9mb 44f 39f
4:42am 11 15 mph 1013mb 44f 40f
4:36am 14 17 mph 1012.9mb 44f 41f
4:30am 10 14 mph 1013mb 44f 41f
4:24am 9 14 mph 1012.8mb 44f 41f
4:18am 9 13 mph 1012.9mb 44f 42f
4:12am 9 13 mph 1013mb 44f 41f
4:06am 13 18 mph 1013mb 44f 42f
4:00am 14 16 mph 1012.9mb 44f 42f
3:54am 9 15 mph 1012.8mb 44f 42f
3:48am 13 16 mph 1012.7mb 44f 42f
3:42am 11 17 mph 1012.9mb 44f 42f
3:36am 14 20 mph 1013mb 44f 42f
3:30am 11 15 mph 1013.1mb 44f 44f
3:24am 9 15 mph 1013.2mb 44f 44f
3:18am 7 10 mph 1013.3mb 44f 44f
3:12am 8 11 mph 1013.3mb 44f 44f
3:06am 9 15 mph 1013mb 44f 44f
3:00am 10 15 mph 1013.1mb 44f 44f
2:54am 11 15 mph 1013.1mb 44f 44f
2:48am 9 13 mph 1013.1mb 44f -
2:42am 9 18 mph 1013.1mb 44f -
2:36am 13 15 mph 1012.8mb 44f -
2:30am 8 11 mph 1012.9mb 44f 46f
2:24am 8 10 mph 1013mb 44f 46f
2:18am 8 13 mph 1013mb 44f 46f
2:12am 9 11 mph 1012.9mb 44f 46f
2:06am 9 14 mph 1012.9mb 44f 46f
2:00am 10 13 mph 1012.9mb 44f 47f
1:54am 10 13 mph 1012.6mb 44f 47f
1:48am 10 11 mph 1012.8mb 44f 47f
1:42am 9 10 mph 1012.8mb 44f 46f
1:36am 7 9 mph 1013mb 44f 46f
1:30am 7 10 mph 1013.2mb 44f 46f
1:24am 6 16 mph 1013.2mb 44f 46f
1:18am 9 14 mph 1013.4mb 44f 47f
1:12am 13 15 mph 1013.5mb 44f 47f
1:06am 14 20 mph 1013.5mb 44f 47f
1:00am 10 15 mph 1013.5mb 44f 48f
12:54am 11 15 mph 1013.6mb 44f 48f
12:48am 10 13 mph 1013.5mb 44f 49f
12:42am 11 16 mph 1013.4mb 44f 49f
12:36am 11 14 mph 1013.5mb 44f 49f
12:30am 7 8 mph 1013.3mb 44f 50f
12:24am 6 7 mph 1013.3mb 44f 50f
12:18am 6 9 mph 1013.2mb 44f 50f
12:12am 7 9 mph 1013.1mb 44f 50f
12:06am 7 10 mph 1013.1mb 44f 50f
12:00am 10 14 mph 1013.2mb 44f 51f
Mon 04/25 11:54pm 10 15 mph 1013.1mb 44f 51f
11:48pm 11 14 mph 1013.1mb 44f 51f
11:42pm 14 16 mph 1013.2mb 44f 51f
11:36pm 13 15 mph 1013.2mb 44f 51f
11:30pm 8 13 mph 1013.2mb 44f 52f
11:24pm 8 9 mph 1013.1mb 44f 52f
11:18pm 7 8 mph 1013mb 44f 52f
11:12pm 7 10 mph 1012.9mb 44f 52f
11:06pm 8 9 mph 1012.8mb 44f 52f
11:00pm 6 9 mph 1012.8mb 45f 52f
10:54pm 6 7 mph 1012.8mb 45f 53f
10:48pm 5 7 mph 1012.7mb 46f 53f
10:42pm 6 8 mph 1012.7mb 46f 53f
10:36pm 6 9 mph 1012.7mb 47f 53f
10:30pm 7 9 mph 1012.7mb 48f 53f
10:24pm 7 8 mph 1012.7mb 48f 53f
10:18pm 7 10 mph 1012.7mb 49f 53f
10:12pm 8 10 mph 1012.7mb 49f 54f
10:06pm 6 7 mph 1012.6mb 49f 54f
10:00pm 6 8 mph 1012.6mb 49f 54f
9:54pm 6 7 mph 1012.6mb 49f 54f
9:48pm 6 7 mph 1012.6mb 49f 54f
9:42pm 7 9 mph 1012.5mb 49f 55f
9:36pm 7 8 mph 1012.5mb 49f 55f
9:30pm 7 8 mph 1012.5mb 48f 54f
9:24pm 5 7 mph 1012.4mb 48f 54f
9:18pm 5 6 mph 1012.3mb 48f 55f
9:12pm 5 6 mph 1012.3mb 48f 55f
9:06pm 3 5 mph 1012.3mb 48f 55f
9:00pm 5
mph
1012.3mb 48f 55f
8:54pm 5 6 mph 1012.2mb 48f 55f
8:48pm 5 6 mph 1012.2mb - 55f
8:42pm 5 6 mph 1012mb - 55f
8:36pm 5 7 mph 1012mb - 56f
8:30pm 3 8 mph 1011.9mb 48f 56f
8:24pm 5 7 mph 1011.9mb 48f 55f
8:18pm 5 8 mph 1011.9mb 48f 56f
8:12pm 6 9 mph 1011.7mb 48f 56f
8:06pm 6 9 mph 1011.6mb 48f 56f
8:00pm 6 8 mph 1011.6mb 47f 56f
7:54pm 9 13 mph 1011.5mb 47f 56f
7:48pm 7 10 mph 1011.4mb 47f 56f
7:42pm 6 11 mph 1011.3mb 47f 56f
7:36pm 7 13 mph 1011.3mb 47f 57f
7:30pm 9 13 mph 1011.2mb 47f 57f
7:24pm 9 14 mph 1011.2mb 47f 57f
7:18pm 9 15 mph 1011.2mb 47f 57f
7:12pm 7 11 mph 1011.2mb 47f 57f
7:06pm 6 11 mph 1011.2mb 47f 57f
7:00pm 9 14 mph 1011.2mb 47f 57f
6:54pm 8 9 mph 1011.1mb 46f 56f
6:48pm 5 6 mph 1011.1mb 46f 54f
6:42pm 3 6 mph 1011.1mb 46f 54f
6:36pm 2 5 mph 1011mb 46f 53f
6:30pm 1 3 mph 1011mb 46f 51f
6:24pm 3
mph
1011mb 46f 51f
6:18pm  -  2 mph 1010.9mb 46f 51f
6:12pm 2 7 mph 1010.9mb 46f 50f
6:06pm 6 8 mph 1010.9mb 45f 50f
6:00pm  -  mph 1010.8mb 45f 50f
5:54pm  -  mph 1010.9mb 45f 50f
5:48pm  -  mph 1010.9mb 45f 50f
5:42pm  -  mph 1010.9mb 45f 50f
5:36pm  -  mph 1011mb 46f 50f
5:30pm 13 17 mph 1011mb 47f 50f
5:24pm 14 16 mph 1011mb 47f 50f
5:18pm 17 21 mph 1011mb 47f 50f
5:12pm 15 20 mph 1011mb 47f 50f
5:06pm 15 21 mph 1011.1mb 47f 50f
5:00pm 16 23 mph 1011.1mb 46f 50f
4:54pm 17 22 mph 1011.1mb 46f 50f
4:48pm 16 21 mph 1011.3mb 46f 49f
4:42pm 16 23 mph 1011.3mb 46f 49f
4:36pm 20 24 mph 1011.4mb 46f 50f
4:30pm 18 23 mph 1011.3mb 46f 50f
4:24pm 17 23 mph 1011.4mb 46f 50f
4:18pm 18 22 mph 1011.4mb 46f 50f
4:12pm 20 24 mph 1011.5mb 46f 50f
4:06pm 16 24 mph 1011.5mb 45f 50f
4:00pm 21 24 mph 1011.7mb 45f 50f
3:54pm 16 23 mph 1011.6mb 45f 50f
3:48pm 18 23 mph 1011.6mb 45f 51f
3:42pm 20 24 mph 1011.7mb 45f 50f
3:36pm 18 23 mph 1011.8mb 45f 50f
3:30pm 17 22 mph 1011.8mb 45f 50f
3:24pm 17 23 mph 1011.7mb 45f 50f
3:18pm 20 23 mph 1011.8mb 45f 50f
3:12pm 17 28 mph 1011.9mb 45f 50f
3:06pm 20 23 mph 1011.9mb 45f 50f
3:00pm 18 28 mph 1012mb 45f 50f
2:54pm 20 24 mph 1012.1mb 44f 51f
2:48pm 20 22 mph 1012.2mb 44f 50f
2:42pm 16 25 mph 1012.3mb 44f 50f
2:36pm 20 24 mph 1012.5mb 44f 50f
2:30pm 16 23 mph 1012.5mb 44f 50f
2:24pm 16 22 mph 1012.6mb 44f 50f
2:18pm 17 23 mph 1012.7mb 44f 50f
2:12pm 17 21 mph 1012.8mb 44f 50f
2:06pm 15 24 mph 1012.9mb 44f 50f
2:00pm 22 29 mph 1012.8mb 44f 50f
1:54pm 15 28 mph 1013mb 44f 49f
1:48pm 21 26 mph 1013mb 44f 49f
1:42pm 18 26 mph 1013mb 44f 50f
1:36pm 17 30 mph 1013mb 44f 50f
1:30pm 18 26 mph 1013.1mb 44f 50f
1:24pm 17 28 mph 1013.3mb 44f 49f
1:18pm 21 25 mph 1013.2mb 44f 49f
1:12pm 17 23 mph 1013.2mb 44f 49f
1:06pm 17 22 mph 1013.4mb 44f 49f
1:00pm 18 25 mph 1013.6mb 44f 49f
12:54pm 18 24 mph 1013.6mb 44f 49f